Overview Statistics Trail Chart Weather Telemetry Raw packets
 

This is the latest recevied weather packets stored in our database for station/object N7ZAP. If no packets are shown the sender has not sent any weather packets the latest 10 day(s).

<< 32 33 34 35 36 37 38 >>
Time Temp. Humidity Pressure Rain* Wind** Luminosity Snow
1788474830 32.22° C 24% 1017.4 hPa 0 mm - - -
1788474525 32.22° C 24% 1017.5 hPa 0 mm - - -
1788474224 32.22° C 24% 1017.5 hPa 0 mm - - -
1788473919 32.22° C 24% 1017.6 hPa 0 mm - - -
1788473618 32.78° C 24% 1017.5 hPa 0 mm - - -
1788473316 32.78° C 24% 1017.7 hPa 0 mm - - -
1788473011 32.78° C 23% 1017.6 hPa 0 mm - - -
1788472709 32.78° C 22% 1017.7 hPa 0 mm - - -
1788472406 32.78° C 22% 1017.6 hPa 0 mm - - -
1788472104 33.33° C 21% 1017.8 hPa 0 mm - - -
1788471813 34.44° C 21% 1017.8 hPa 0 mm - - -
1788471500 35° C 20% 1018 hPa 0 mm - - -
1788471195 34.44° C 21% 1017.8 hPa 0 mm - - -
1788470892 34.44° C 21% 1017.8 hPa 0 mm - - -
1788470588 35° C 20% 1018 hPa 0 mm - - -
1788470287 35° C 20% 1018.1 hPa 0 mm - - -
1788469983 35° C 21% 1018.3 hPa 0 mm - - -
1788469679 35° C 20% 1018.2 hPa 0 mm - - -
1788469374 35° C 21% 1018.3 hPa 0 mm - - -
1788469074 35.56° C 20% 1018.4 hPa 0 mm - - -
1788468774 36.11° C 19% 1018.3 hPa 0 mm - - -
1788468469 35.56° C 20% 1018.7 hPa 0 mm - - -
1788468165 34.44° C 21% 1018.7 hPa 0 mm - - -
1788467860 35.56° C 20% 1018.8 hPa 0 mm - - -
1788467556 35.56° C 20% 1018.4 hPa 0 mm - - -

* Rain latest hour (hover to see other rain measurements)
** Current wind speed in m/s (hover to see current wind gust speed)